Tracking 31027 objects as of 19-Jul-2025
HD Live streaming from Space Station
objects crossing your sky now

STARLINK-31266

Track STARLINK-31266 now!
10-day predictions
STARLINK-31266 is classified as:


NORAD ID: 59087
Int'l Code: 2024-041P
Perigee: 489.6 km
Apogee: 490.8 km
Inclination: 43.0 °
Period: 94.3 minutes
Semi major axis: 6861 km
RCS: Unknown
Launch date: February 29, 2024
Source: United States (US)
Launch site: AIR FORCE EASTERN TEST RANGE (AFETR)
Your satellite tracking list
FENGYUN 1C DEB
Track 1 satellite(s)




NASA's NSSDC Master Catalog

Two Line Element Set (TLE):
1 59087U 24041P   25199.28096362  .00003323  00000-0  13025-3 0  9997
2 59087  43.0007 194.3527 0000824 270.8192  89.2566 15.27574245 78473
Source of the keplerian elements: AFSPC